Duchifat 3
1 44854U 19089C   25119.06626731  .00062288  00000-0  13722-2 0  9994
2 44854  36.9443 258.4558 0001493 296.8846  63.1757 15.42874618296522
TO-108
1 44881U 19093C   25119.20327871  .00001787  00000-0  21286-3 0  9990
2 44881  97.7934 195.7181 0014020  13.6007 346.5584 14.85504500289930
FloripaSat 1
1 44885U 19093G   25121.81225433  .00008203  00000-0  69835-3 0  9997
2 44885  97.8157 209.3493 0010020 342.1843  17.9027 14.98019597290949
RS-44
1 44909U 19096E   25118.88438593  .00000003  00000-0 -35413-4 0  9990
2 44909  82.5197 254.9790 0217905  33.3383 328.1225 12.79740312249401
UPMSat 2
1 46276U 20061E   25118.19150114  .00080278  00000-0  87742-3 0  9999
2 46276  97.2475 191.3195 0001433 144.1174 216.0182 15.63069110258831
SALSAT
1 46495U 20068K   25118.88025232  .00013013  00000-0  57067-3 0  9997
2 46495  97.8583  95.0095 0010005 314.5959  45.4458 15.22078436252186
CubeSX-Sirius-HSE
1 47951U 21022V   25119.10148619  .00277172  00000-0  16781-2 0  9992
2 47951  97.4188  30.0155 0010338 102.7460 257.4962 15.76735564227278
CubeSX-HSE
1 47952U 21022W   25119.11920947  .00273004  00000-0  16164-2 0  9991
2 47952  97.4207  30.2816 0009743 100.2100 260.0265 15.77261875227297
GRBAlpha
1 47959U 21022AD  25121.69856538  .00284885  00000-0  16419-2 0  9990
2 47959  97.4177  33.1534 0009440  99.8356 260.3977 15.77844331226521
TUBIN
1 48900U 21059X   25119.18778732  .00055202  00000-0  77185-3 0  9994
2 48900  97.6734 285.1757 0002593  38.3023 321.8415 15.56663352213598
LEDSAT
1 49069U 21073D   25119.20114472  .00070100  00000-0  10296-2 0  9998
2 49069  97.3912 199.1781 0011704 221.5386 138.4979 15.55187792204992
CUTE
1 49263U 21088D   25118.16124516  .00025943  00000-0  54445-3 0  9994
2 49263  97.4526 193.2346 0008762  46.0202 314.1767 15.45318014197877
TeikyoSat 4
1 49396U 21102B   25118.66859940  .00003855  00000-0  25812-3 0  9993
2 49396  97.4129 158.6053 0011016 277.9561  82.0417 15.07436782190239
Z-Sat
1 49399U 21102E   25119.18498852  .00006354  00000-0  35219-3 0  9994
2 49399  97.3838 161.9492 0016701 244.7254 115.2248 15.14014547190712
KOSEN 1
1 49402U 21102H   25118.07732837  .00013301  00000-0  62490-3 0  9991
2 49402  97.3747 163.9762 0015149 222.7708 137.2350 15.19630124190834
HO-113
1 50466U 21131B   25119.23181996  .00001080  00000-0  35161-3 0  9994
2 50466  98.5084 208.7928 0003032 252.8680 107.2176 14.40756042175495
IRIS-A
1 51044U 22002BN  25119.18907259  .00230826  00000-0  11120-2 0  9997
2 51044  97.3262 197.4985 0004408 247.8637 112.2164 15.81994691183317
Foresail-1
1 52766U 22057AL  25118.92074452  .00198729  00000-0  11674-2 0  9999
2 52766  97.6041 266.2880 0000394 267.1148  93.0072 15.77692680163295
SNUGLITE 2
1 52899U 22065F   25118.84305023  .00002485  00000-0  49294-3 0  9990
2 52899  98.1623 261.2399 0006602 238.0909 121.9651 14.63092923150382
IO-117
1 53106U 22080B   25051.21822557 -.00000003  00000-0  00000+0 0  9995
2 53106  70.1434 106.3440 0008542  48.0089 312.1297  6.42557744 61200
UmKA 1 (RS40S)
1 57172U 23091G   25119.19763710  .00008587  00000-0  46417-3 0  9992
2 57172  97.5613 174.8021 0016259 116.2505 244.0400 15.14819555101214
CubeBel-2 (EU11S)
1 57175U 23091K   25119.19867436  .00013318  00000-0  64834-3 0  9996
2 57175  97.5612 175.7097 0014096 124.5290 235.7277 15.18413584101270
VERONIKA
1 58261U 23174F   25121.84849980  .00137841  00000-0  16317-2 0  9994
2 58261  97.4139 205.9903 0007461 191.7943 168.3141 15.60770216 82624
ENSO
1 58470U 23185J   25119.15882600  .00059291  00000-0  10058-2 0  9993
2 58470  97.3760 193.0845 0008227 219.0766 140.9893 15.51271783 78603
EIRSAT-1
1 58472U 23185L   25119.16931163  .00097646  00000-0  12281-2 0  9991
2 58472  97.3729 194.3937 0007555 217.4765 142.5965 15.59310130 78695
SONATE-2
1 59112U 24043Q   25121.90578235  .00025730  00000-0  77225-3 0  9994
2 59112  97.5086 252.3596 0010634 248.4736 111.5373 15.34380184 64407
MO-122
1 60209U 24125G   25118.34151015  .00029119  00000-0  86731-3 0  9998
2 60209  97.2838 330.4685 0017725 289.9849  69.9485 15.34492565 45471
GRBBeta
1 60237U 24128C   25118.74043480  .00007058  00000-0  53457-3 0  9999
2 60237  61.9925 225.3928 0048254  48.1677 312.3518 15.02236880 43914
Curium One
1 60242U 24128H   25118.70904731  .00011808  00000-0  83278-3 0  9998
2 60242  61.9827 224.3746 0048105  43.6945 316.7939 15.04431963 43939
ROBUSTA-3A
1 60243U 24128J   25118.69939699  .00012340  00000-0  88101-3 0  9990
2 60243  61.9897 225.1018 0046546  41.4683 318.9925 15.04003076 43928
CatSat
1 60246U 24125J   25118.11225866  .00015188  00000-0  52081-3 0  9992
2 60246  97.2628 329.9205 0041887 244.2113 115.4803 15.29409123 43497
HYPERVIEW-1G (RS66S)
1 61772U 24199AP  25119.20647120  .00026582  00000-0  81445-3 0  9996
2 61772  97.3590 348.1894 0013258 348.8832  11.2116 15.33686615 70610
AO-123
1 61781U 24199AY  25119.19419839  .00009655  00000-0  35761-3 0  9990
2 61781  97.3601 347.4677 0015553 351.2040   8.8924 15.27743161 70569
ZIMSAT 2
1 61783U 24199BA  25119.18603292  .00046052  00000-0  12417-2 0  9993
2 61783  97.3575 348.5066 0013259 347.1261  12.9643 15.37577619 73780
HADES-R (SO-124)
1 62690U 25009CK  25118.68923281  .00050666  00000-0  19614-2 0  9991
2 62690  97.4106 199.7515 0003686 207.6545 152.4498 15.26003116 15757
HYDRA-T
1 62692U 25009CM  25118.15621048  .00059952  00000-0  23074-2 0  9993
2 62692  97.4107 199.2411 0003692 204.3960 155.7105 15.26147982 15674
JINJUSat 1B
1 63210U 25052A   25118.66522413  .00018705  00000-0  88013-3 0  9996
2 63210  97.4468  13.3399 0006478 103.1063 257.0896 15.19586600  6889
NUSHSAT 1
1 63211U 25052B   25118.66488036  .00020349  00000-0  95397-3 0  9999
2 63211  97.4453  13.3362 0006461 107.4001 252.7941 15.19695150  6889
TEVEL2-4
1 63213U 25052D   25118.93434500  .00019002  00000-0  89743-3 0  9990
2 63213  97.4370  13.5413 0005326 117.2157 242.9621 15.19458817  6926
TEVEL2-5
1 63214U 25052E   25119.19794388  .00017140  00000-0  81007-3 0  9999
2 63214  97.4369  13.8007 0005329 116.8648 243.3132 15.19457604  6969
TEVEL2-6
1 63215U 25052F   25118.27699157  .00020625  00000-0  97570-3 0  9990
2 63215  97.4375  12.8919 0005397 119.1186 241.0589 15.19384880  6827
TEVEL2-1
1 63217U 25052H   25118.21644667  .00019940  00000-0  94885-3 0  9996
2 63217  97.4350  12.8065 0005301 128.9484 231.2223 15.19187801  6817
TEVEL2-2
1 63218U 25052J   25118.94120894  .00018026  00000-0  85782-3 0  9998
2 63218  97.4349  13.5196 0005361 128.0539 232.1181 15.19207409  6929
TEVEL2-3
1 63219U 25052K   25118.87535758  .00017898  00000-0  85188-3 0  9996
2 63219  97.4349  13.4547 0005312 127.7771 232.3945 15.19202558  6918
TEVEL2-8
1 63237U 25052AD  25118.24915530  .00020754  00000-0  10203-2 0  9997
2 63237  97.4410  12.7990 0009265 150.2464 209.9298 15.18019934  6815
TEVEL2-9
1 63238U 25052AE  25118.51372894  .00018439  00000-0  90808-3 0  9995
2 63238  97.4417  13.0580 0009291 149.5405 210.6370 15.17983820  6854
TEVEL2-7
1 63239U 25052AF  25118.25102949  .00020410  00000-0  10058-2 0  9999
2 63239  97.4418  12.7963 0009388 150.1392 210.0380 15.17939388  6818
HYDRA-W
1 63490U 25052BL  25118.86600034  .00038531  00000-0  17373-2 0  9993
2 63490  97.4363  13.4761 0013793 148.8722 211.3333 15.20833735  6912
HADES-ICM
1 63492U 25052BN  25118.93669070  .00035734  00000-0  16264-2 0  9998
2 63492  97.4369  13.5368 0013907 152.3079 207.8900 15.20526467  6928
